Satellite: MET-3/5
Catalog number: 21655
Epoch time:      08170.94047952
Element set:    0468
Inclination:      082.5506 deg
RA of node:       103.1452 deg
Eccentricity:    0.0014593
Arg of perigee:   013.6440 deg
Mean anomaly:     346.5073 deg
Mean motion:   13.17015537 rev/day
Decay rate:        5.1e-07 rev/day^2
Epoch rev:           80981
Checksum:              287

Satellite: MET-2/21
Catalog number: 22782
Epoch time:      08170.94486190
Element set:    0174
Inclination:      082.5476 deg
RA of node:       110.1851 deg
Eccentricity:    0.0021019
Arg of perigee:   287.1338 deg
Mean anomaly:     072.7527 deg
Mean motion:   13.83629363 rev/day
Decay rate:       -1.9e-07 rev/day^2
Epoch rev:           74737
Checksum:              313

Satellite: OKEAN-4
Catalog number: 23317
Epoch time:      08171.75651307
Element set:     618
Inclination:      082.5390 deg
RA of node:       312.6692 deg
Eccentricity:    0.0023683
Arg of perigee:   116.4487 deg
Mean anomaly:     243.9155 deg
Mean motion:   14.82617828 rev/day
Decay rate:        3.7e-07 rev/day^2
Epoch rev:           73866
Checksum:              322

Satellite: NOAA-14
Catalog number: 23455
Epoch time:      08170.68029562
Element set:    0187
Inclination:      098.9465 deg
RA of node:       242.9237 deg
Eccentricity:    0.0010190
Arg of perigee:   137.3980 deg
Mean anomaly:     222.7990 deg
Mean motion:   14.13744677 rev/day
Decay rate:       2.09e-06 rev/day^2
Epoch rev:           69456
Checksum:              332

Satellite: SICH-1
Catalog number: 23657
Epoch time:      08170.70122479
Element set:    0417
Inclination:      082.5273 deg
RA of node:       094.6443 deg
Eccentricity:    0.0025511
Arg of perigee:   112.8270 deg
Mean anomaly:     247.5660 deg
Mean motion:   14.81585875 rev/day
Decay rate:       1.39e-06 rev/day^2
Epoch rev:           69044
Checksum:              304

Satellite: NOAA-15
Catalog number: 25338
Epoch time:      08171.18345980
Element set:     508
Inclination:      098.5531 deg
RA of node:       162.9907 deg
Eccentricity:    0.0011363
Arg of perigee:   040.7724 deg
Mean anomaly:     319.4321 deg
Mean motion:   14.24707783 rev/day
Decay rate:       -7.4e-07 rev/day^2
Epoch rev:           52508
Checksum:              307

Satellite: RESURS
Catalog number: 25394
Epoch time:      08170.65457727
Element set:    0966
Inclination:      098.3885 deg
RA of node:       214.5483 deg
Eccentricity:    0.0001144
Arg of perigee:   152.8675 deg
Mean anomaly:     207.2557 deg
Mean motion:   14.24162261 rev/day
Decay rate:        9.0e-08 rev/day^2
Epoch rev:           51665
Checksum:              315

Satellite: FENGYUN1
Catalog number: 25730
Epoch time:      08171.82944540
Element set:     464
Inclination:      098.7223 deg
RA of node:       147.5243 deg
Eccentricity:    0.0020294
Arg of perigee:   157.7482 deg
Mean anomaly:     202.4571 deg
Mean motion:   14.07693946 rev/day
Decay rate:       4.74e-06 rev/day^2
Epoch rev:           46933
Checksum:              312

Satellite: OKEAN-0
Catalog number: 25860
Epoch time:      08170.54253957
Element set:    0397
Inclination:      097.7494 deg
RA of node:       161.0296 deg
Eccentricity:    0.0000632
Arg of perigee:   050.8597 deg
Mean anomaly:     309.2667 deg
Mean motion:   14.73525372 rev/day
Decay rate:        1.1e-07 rev/day^2
Epoch rev:           47959
Checksum:              325

Satellite: NOAA-16
Catalog number: 26536
Epoch time:      08171.11975429
Element set:     979
Inclination:      099.1547 deg
RA of node:       160.3374 deg
Eccentricity:    0.0009830
Arg of perigee:   216.7565 deg
Mean anomaly:     143.2959 deg
Mean motion:   14.12484337 rev/day
Decay rate:      -1.20e-06 rev/day^2
Epoch rev:           39904
Checksum:              329

Satellite: NOAA-17
Catalog number: 27453
Epoch time:      08170.66849822
Element set:    0970
Inclination:      098.5356 deg
RA of node:       235.2521 deg
Eccentricity:    0.0012897
Arg of perigee:   103.6177 deg
Mean anomaly:     256.6443 deg
Mean motion:   14.23980993 rev/day
Decay rate:       -7.0e-07 rev/day^2
Epoch rev:           31101
Checksum:              317

Satellite: NOAA-18
Catalog number: 28654
Epoch time:      08170.68356369
Element set:    0472
Inclination:      098.8679 deg
RA of node:       111.5951 deg
Eccentricity:    0.0013712
Arg of perigee:   313.3625 deg
Mean anomaly:     046.6407 deg
Mean motion:   14.11171174 rev/day
Decay rate:       2.30e-06 rev/day^2
Epoch rev:           15868
Checksum:              314

/EX
SB KEPS @ AMSAT  $ORB08171.M
Orbital Elements  08171.MISC

HR AMSAT ORBITAL ELEMENTS FOR MANNED AND MISCELLANEOUS SATELLITES
FROM WA5QGD FORT WORTH,TX June 19, 2008
Send Subscribe/unsubscribe to KEPS at 
http://www.amsat.org/mailman/listinfo/keps
BID: ORB08171.M
TO ALL RADIO AMATEURS BT

Satellite: HUBBLE
Catalog number: 20580
Epoch time:      08171.73841392
Element set:     160
Inclination:      028.4690 deg
RA of node:       306.5931 deg
Eccentricity:    0.0003408
Arg of perigee:   054.0999 deg
Mean anomaly:     305.9908 deg
Mean motion:   15.00387443 rev/day
Decay rate:       3.18e-06 rev/day^2
Epoch rev:           79536
Checksum:              303

